Simultaneous Nadir Overpasses (SNOs) Predictions

Prediction of SNOs between GOES-16 and LANDSAT-8 Satellite Orbit:

Table of predicted SNOs for the next 14.0 days since TLE Epoch: 11/4/2023
Index Date Time (GOES-16) GOES-16 Lat,Lon LANDSAT-8 Lat,Lon Distance(km) Time Diff (sec)
1 11/05/2023 14:57:11 -0.05, -75.23 -0.97, -70.98 483.59 80
2 11/06/2023 03:18:35 0.04, -75.20 -0.13, -76.17 109.39 80
3 11/08/2023 03:03:42 0.04, -75.22 0.48, -73.20 229.44 80
4 11/08/2023 15:24:57 -0.04, -75.25 0.63, -78.35 352.98 80
5 11/10/2023 15:12:44 -0.04, -75.28 -0.01, -75.39 13.26 80
6 11/12/2023 15:03:11 -0.04, -75.30 -0.67, -72.43 326.94 80
7 11/13/2023 03:24:33 0.04, -75.28 -0.46, -77.61 265.28 80
8 11/15/2023 03:09:39 0.03, -75.31 0.17, -74.65 75.18 80
9 11/17/2023 02:57:26 0.02, -75.33 0.82, -71.68 415.91 80
10 11/17/2023 15:18:40 -0.02, -75.37 0.26, -76.84 166.32 80
